, FL

(GMT )
Crestview

Weather History for KEGI - January, 2014

Change the Weather History Date:

Thursday, January 2, 2014

  Actual Average Record
Temperature  
Mean Temperature 47 °F -  
Max Temperature 58 °F - - ()
Min Temperature 35 °F - - ()
Degree Days  
Heating Degree Days 18    
Moisture  
Dew Point 50 °F    
Average Humidity 92    
Maximum Humidity 100    
Minimum Humidity 55    
Precipitation  
Precipitation 0.09 in - - ()
Sea Level Pressure  
Sea Level Pressure 30.00 in    
Wind  
Wind Speed 6 mph (NNE)    
Max Wind Speed 24 mph    
Max Gust Speed 34 mph    
Visibility 8 miles    
Events Rain    
Averages and records for this station are not official NWS values.
T = Trace of Precipitation, MM = Missing Value Source: NWS Daily Summary

Daily Weather History Graph

Daily Weather History Graph

Search for Another Location

Airport or City:

Astronomy

Jan. 02, 2014 Rise Set
Actual Time 6:43 AM CST 4:56 PM CST
Civil Twilight 6:17 AM CST 5:23 PM CST
Nautical Twilight 5:47 AM CST 5:53 PM CST
Astronomical Twilight 5:17 AM CST 6:22 PM CST
Moon 7:32 AM CST (1/2) 6:44 PM CST (1/2)
Length of Visible Light 11h 05m
Length of Day
10h 13m
Waxing Crescent, 3% of the Moon is Illuminated
Jan 2
Waxing Crescent
Jan 7
First Quarter
Jan 15
Full
Jan 23
Last Quarter
Jan 30
New

Hourly Weather History & Observations

Time (CST) Temp. Windchill Dew Point Humidity Pressure Visibility Wind Dir Wind Speed Gust Speed Precip Events Conditions
12:20 AM 51.8 °F - 51.8 °F 100% 30.04 in 10.0 mi East 5.8 mph - N/A   Clear
12:24 AM 51.8 °F - 51.8 °F 100% 30.04 in 10.0 mi ESE 4.6 mph - N/A   Light Drizzle
12:35 AM 51.8 °F - 51.8 °F 100% 30.03 in 10.0 mi East 4.6 mph - N/A Rain Light Rain
12:50 AM 51.8 °F - 51.8 °F 100% 30.04 in 10.0 mi Variable 2.3 mph - N/A   Mostly Cloudy
12:55 AM 51.8 °F - 51.8 °F 100% 30.04 in 10.0 mi ENE 2.3 mph - N/A   Mostly Cloudy
12:58 AM 51.6 °F - 51.3 °F 99% 30.05 in 10.0 mi ENE 3.5 mph - 0.00 in   Mostly Cloudy
1:00 AM 51.8 °F - 51.8 °F 100% 30.03 in 10.0 mi East 3.5 mph - N/A   Light Drizzle
1:05 AM 51.8 °F - 51.8 °F 100% 30.04 in 10.0 mi Variable 2.3 mph - N/A   Light Drizzle
1:29 AM 51.8 °F - 51.8 °F 100% 30.05 in 7.0 mi North 5.8 mph - N/A   Overcast
1:34 AM 51.8 °F - 51.8 °F 100% 30.06 in 7.0 mi North 4.6 mph - N/A   Overcast
1:35 AM 51.8 °F - 51.8 °F 100% 30.06 in 7.0 mi North 4.6 mph - N/A Rain Light Rain
1:56 AM 51.8 °F - 51.8 °F 100% 30.06 in 7.0 mi NNW 5.8 mph - N/A   Overcast
1:58 AM 51.8 °F - 51.8 °F 100% 30.07 in 7.0 mi NNW 5.8 mph - 0.00 in   Overcast
2:16 AM 51.8 °F - 51.8 °F 100% 30.03 in 6.0 mi NE 4.6 mph - N/A   Light Drizzle
2:21 AM 51.8 °F - 51.8 °F 100% 30.03 in 6.0 mi NE 4.6 mph - N/A   Light Drizzle
2:26 AM 51.8 °F - 51.8 °F 100% 30.03 in 6.0 mi NE 4.6 mph - N/A   Overcast
2:36 AM 51.8 °F - 51.8 °F 100% 30.03 in 7.0 mi ENE 4.6 mph - N/A   Overcast
2:58 AM 51.6 °F - 51.3 °F 99% 30.01 in 6.0 mi East 4.6 mph - 0.00 in   Overcast
3:03 AM 51.8 °F - 51.8 °F 100% 30.00 in 5.0 mi East 3.5 mph - N/A   Overcast
3:58 AM 51.8 °F - 51.6 °F 99% 29.99 in 6.0 mi ENE 2.3 mph - N/A   Overcast
4:08 AM 51.8 °F - 51.8 °F 100% 29.97 in 6.0 mi East 3.5 mph - N/A   Overcast
4:17 AM 51.8 °F - 51.8 °F 100% 29.97 in 6.0 mi ESE 3.5 mph - N/A   Light Drizzle
4:42 AM 51.8 °F - 51.8 °F 100% 29.96 in 7.0 mi ENE 2.3 mph - N/A   Overcast
4:58 AM 52.2 °F - 51.8 °F 99% 29.98 in 7.0 mi East 2.3 mph - 0.01 in   Overcast
5:04 AM 51.8 °F - 51.8 °F 100% 29.96 in 7.0 mi ENE 3.5 mph - N/A Rain Light Rain
5:17 AM 51.8 °F - 51.8 °F 100% 29.96 in 6.0 mi NE 2.3 mph - N/A   Overcast
5:58 AM 52.2 °F - 52.0 °F 99% 29.96 in 6.0 mi East 2.3 mph - 0.00 in   Overcast
6:48 AM 53.6 °F - 51.8 °F 94% 29.92 in 10.0 mi East 2.3 mph - N/A   Overcast
6:58 AM 52.9 °F - 52.7 °F 99% 29.93 in 10.0 mi ENE 2.3 mph - N/A   Overcast
7:58 AM 53.4 °F - 53.1 °F 99% 29.94 in 10.0 mi Calm Calm - N/A   Overcast
8:03 AM 53.6 °F - 53.6 °F 100% 29.93 in 10.0 mi Calm Calm - N/A   Overcast
8:27 AM 53.6 °F - 53.6 °F 100% 29.94 in 10.0 mi Calm Calm - N/A Rain Light Rain
8:32 AM 53.6 °F - 53.6 °F 100% 29.94 in 10.0 mi Calm Calm - N/A Rain Light Rain
8:55 AM 54.3 °F - 54.0 °F 99% 29.94 in 2.0 mi Calm Calm - 0.01 in Rain Light Rain
8:58 AM 54.3 °F - 54.0 °F 99% 29.96 in 6.0 mi Calm Calm - 0.01 in Rain Light Rain
9:08 AM 55.4 °F - 53.6 °F 94% 29.95 in 9.0 mi Calm Calm - N/A Rain Light Rain
9:18 AM 55.4 °F - 53.6 °F 94% 29.94 in 8.0 mi Calm Calm - N/A Rain Light Rain
9:24 AM 55.4 °F - 55.4 °F 100% 29.95 in 1.5 mi Calm Calm - N/A Rain Light Rain
9:49 AM 55.4 °F - 55.4 °F 100% 29.94 in 1.5 mi SSE 3.5 mph - N/A Rain Light Rain
9:56 AM 55.8 °F - 55.6 °F 99% 29.94 in 1.5 mi South 4.6 mph - 0.03 in Rain Light Rain
10:08 AM 55.4 °F - 55.4 °F 100% 29.97 in 4.0 mi WNW 15.0 mph 20.7 mph N/A Rain Light Rain
10:22 AM 55.4 °F - 55.4 °F 100% 29.96 in 7.0 mi WNW 3.5 mph - N/A Rain Light Rain
10:45 AM 55.4 °F - 55.4 °F 100% 29.95 in 10.0 mi WNW 3.5 mph - N/A   Overcast
10:55 AM 56.1 °F - 55.9 °F 99% 29.95 in 6.0 mi WNW 3.5 mph - 0.04 in   Light Drizzle
11:44 AM 57.2 °F - 57.2 °F 100% 29.91 in 10.0 mi NW 8.1 mph - N/A   Overcast
11:55 AM 57.6 °F - 57.2 °F 99% 29.92 in 10.0 mi NW 11.5 mph - 0.00 in   Overcast
12:14 PM 57.2 °F - 57.2 °F 100% 29.92 in 10.0 mi NW 10.4 mph - N/A   Overcast
12:41 PM 57.2 °F - 55.4 °F 94% 29.91 in 10.0 mi NW 12.7 mph 19.6 mph N/A   Overcast
12:55 PM 57.9 °F - 53.2 °F 84% 29.91 in 10.0 mi NW 13.8 mph - N/A   Overcast
1:55 PM 58.3 °F - 50.5 °F 75% 29.91 in 10.0 mi NW 10.4 mph 18.4 mph N/A   Overcast
2:57 PM 57.9 °F - 47.5 °F 68% 29.91 in 10.0 mi NW 15.0 mph - N/A   Mostly Cloudy
3:55 PM 56.7 °F - 43.3 °F 61% 29.96 in 10.0 mi NNW 21.9 mph 34.5 mph N/A   Mostly Cloudy
4:55 PM 51.4 °F - 38.5 °F 61% 30.02 in 10.0 mi NNW 20.7 mph 28.8 mph N/A   Mostly Cloudy
5:55 PM 47.1 °F - 35.1 °F 63% 30.06 in 10.0 mi NNW 24.2 mph 34.5 mph N/A   Scattered Clouds
6:55 PM 43.7 °F 35.4 °F 32.7 °F 65% 30.11 in 10.0 mi NNW 19.6 mph 27.6 mph N/A   Clear
7:55 PM 41.9 °F 33.7 °F 28.4 °F 59% 30.15 in 10.0 mi NNW 17.3 mph 28.8 mph N/A   Partly Cloudy
8:58 PM 39.7 °F 30.0 °F 24.8 °F 55% 30.17 in 10.0 mi NNW 20.7 mph 29.9 mph N/A   Scattered Clouds
9:55 PM 37.9 °F 28.5 °F 26.6 °F 64% 30.22 in 10.0 mi NNW 17.3 mph 27.6 mph N/A   Scattered Clouds
10:55 PM 36.0 °F 26.7 °F 24.8 °F 64% 30.23 in 10.0 mi NNW 15.0 mph 26.5 mph N/A   Scattered Clouds
11:55 PM 35.1 °F 23.8 °F 23.0 °F 61% 30.24 in 10.0 mi NNW 20.7 mph 25.3 mph N/A   Scattered Clouds